EDT,Max TemperatureF,Mean TemperatureF,Min TemperatureF,Max Dew PointF,MeanDew PointF,Min DewpointF,Max Humidity, Mean Humidity, Min Humidity, Max Sea Level PressureIn, Mean Sea Level PressureIn, Min Sea Level PressureIn, Max VisibilityMiles, Mean VisibilityMiles, Min VisibilityMiles, Max Wind SpeedMPH, Mean Wind SpeedMPH, Max Gust SpeedMPH,PrecipitationIn, CloudCover, Events, WindDirDegrees
2012-10-1,81,75,68,74,71,67,100,87,74,29.80,29.72,29.64,10,9,4,13,6,20,0.02,7,Rain,152
2012-10-2,81,74,66,72,68,63,100,77,54,29.99,29.80,29.68,10,9,1,16,5,23,0.21,6,Rain,236
2012-10-3,75,69,63,68,64,60,100,82,64,30.20,30.10,29.99,10,10,7,6,0,14,0.00,4,,140
2012-10-4,86,73,59,65,62,53,100,67,34,30.27,30.21,30.16,10,8,3,9,1,13,0.00,1,,6
2012-10-5,85,71,56,63,59,56,100,70,40,30.18,30.11,30.03,10,8,3,10,2,14,0.00,0,,238
2012-10-6,88,74,59,67,62,57,97,67,36,30.04,29.98,29.90,10,8,3,13,3,17,0.00,1,,281
2012-10-7,83,71,59,63,59,52,100,76,51,30.05,30.00,29.96,10,9,5,16,5,22,0.00,0,,326
2012-10-8,75,65,55,58,54,49,87,72,57,30.12,30.07,30.03,10,10,10,16,7,21,0.00,6,,22
2012-10-9,74,64,53,56,53,51,100,75,49,30.17,30.11,30.05,10,10,4,10,3,14,0.00,5,,46
2012-10-10,81,66,50,59,55,50,100,73,45,30.18,30.12,30.07,10,5,0,14,4,20,0.00,4,Fog,297
2012-10-11,80,65,50,59,54,49,100,71,42,30.28,30.21,30.16,10,7,2,8,2,12,0.00,0,,354
2012-10-12,87,70,53,62,57,53,100,72,43,30.26,30.21,30.15,10,8,5,15,4,18,0.00,0,,310
2012-10-13,81,69,56,60,56,49,100,68,35,30.33,30.26,30.22,10,10,9,15,6,18,0.00,1,,92
2012-10-14,82,70,57,66,61,55,97,76,54,30.25,30.15,30.03,10,10,10,10,4,14,0.00,2,,98
2012-10-15,83,68,53,68,62,50,100,71,42,30.00,29.93,29.84,10,9,3,17,6,23,0.02,3,Rain,269
2012-10-16,75,59,43,54,47,40,100,65,29,30.00,29.93,29.88,10,10,5,10,2,15,0.00,0,,305
2012-10-17,79,66,52,54,49,43,100,65,30,29.98,29.90,29.84,10,9,7,13,4,21,0.00,0,,169
2012-10-18,80,67,54,64,60,52,100,77,54,29.88,29.83,29.78,10,9,6,14,4,18,0.00,4,,217
2012-10-19,79,62,45,62,42,28,100,58,16,29.88,29.83,29.77,10,9,0,20,6,25,0.00,0,Fog,270
2012-10-20,75,59,42,49,43,39,92,62,31,29.98,29.91,29.85,10,10,7,16,4,21,0.00,0,,291
2012-10-21,77,60,43,51,47,41,100,67,33,30.15,30.09,29.99,10,10,10,12,4,22,0.00,0,,318
2012-10-22,82,63,43,53,48,42,100,65,30,30.23,30.17,30.11,10,10,9,10,2,14,0.00,0,,346
2012-10-23,82,63,44,52,46,37,100,61,21,30.20,30.14,30.08,10,10,7,8,1,13,0.00,0,,208
2012-10-24,83,65,47,59,54,46,100,70,40,30.19,30.11,30.05,10,10,10,10,2,14,0.00,1,,99
2012-10-25,86,68,50,62,57,50,100,70,40,30.09,30.04,29.98,10,9,6,14,5,21,0.00,2,,83
2012-10-26,85,70,54,63,56,50,100,66,31,30.03,29.95,29.87,10,9,3,17,6,24,0.00,1,,41
2012-10-27,77,67,56,59,56,50,90,70,50,29.87,29.79,29.71,10,10,10,20,9,25,0.00,0,,346
2012-10-28,69,59,49,50,46,39,86,69,52,29.84,29.78,29.73,10,10,10,23,11,33,0.00,4,,310
2012-10-29,62,53,44,38,32,24,70,49,27,29.86,29.81,29.75,10,10,10,26,15,43,0.00,0,,317
2012-10-30,61,51,41,28,23,16,57,37,17,29.86,29.75,29.71,10,10,10,25,13,38,0.00,0,,287
2012-10-31,70,56,41,39,31,27,71,47,22,29.94,29.88,29.84,10,10,10,22,10,31,0.00,0,,277